COSMOS 1844

Satellite information

Favourite Embed

Satellite Type and Status

PAYLOADIN ORBIT

Key statistics

Satellite COSMOS 1844 at a glance.

Uptime

14094

Days in orbit

Revolutions

≈ 14.1

Per day

Orbit

LEO

Low Earth Orbit

Inclination

70.9

Latest

Satellite identification and parameters

Extended collection of information and parameters for COSMOS 1844.

Object identification

Identified? True

Debris? False

Object name: COSMOS 1844

International designator: 1987-041A

Object number (NORAD): 17973

Object ID (CCSDS): 17973

Country: COMMONWEALTH OF INDEPENDENT STATES (CIS)

Current information (Y/N): Y

RCS size: LARGE

Orbital parameters

Period: 101.801 minutes

Inclination: 70.8976 deg

SMA: 7222.062 km

Apoapsis: 865.659 km

Periapsis: 822.194 km

RAAN: 218.8415 deg

Eccentricy: 0.00300921

Argument of periapsis: 158.0877 deg

Mean anomaly: 202.154 deg

Mean motion: 14.14526107 rev/day

Mean motion (dot): -0.00000054 rev/day2

B* drag term: -0.000003055157 1/REarth

Two-line elements (TLE)

Creation date: Dec. 12, 2025, 10:14 a.m.

Reference frame: TEME

Reference center: EARTH

Epoch: Dec. 12, 2025, 3:18 a.m. UTC

TLE line 0: 0 COSMOS 1844

TLE line 1: 1 17973U 87041A 25346.13769493 -.00000054 00000-0 -30552-5 0 9990

TLE line 2: 2 17973 70.8976 218.8415 0030092 158.0877 202.1540 14.14526107991201

Live tracking on map

Real-time ground track for satellite COSMOS 1844.

In-orbit conjunctions

A list of the most updated potential collisions computed for object COSMOS 1844.

Target Orbit TCA Probability of collision Miss distance Type
COSMOS 1275 DEB LEO 2025-10-07 15:56:46 0.0003560935 209.0 (m) DEBRIS
FENGYUN 1C DEB SSO 2025-07-02 04:47:03 0.003714637 139.0 (m) DEBRIS
NOAA 16 DEB SSO 2025-05-07 01:46:53 0.002256376 55.0 (m) DEBRIS
CZ-6A DEB LEO 2025-05-04 02:48:06 0.00163379 501.0 (m) DEBRIS
THORAD AGENA D DEB SSO 2025-04-15 10:21:14 0.003654478 173.0 (m) DEBRIS

Associated space launch

Second generation ELING satellite

COSMOS 1844 was lifted into orbit during the mission ‘Zenit-2 | Tselina-2 4’, on board a Zenit-2 space rocket.

The launch took place on May 13, 1987, 5:40 a.m. from 45/1.

For more information about the launch, click the button.

Launch to space Zenit-2 | Tselina-2 4
Zenit-2 | Tselina-2 4

Agency: N/A

Status: Launch Successful

Launch date: May 13, 1987, 5:40 a.m. UTC

Rocket: Zenit-2

Launch pad: 45/1

Location: Baikonur Cosmodrome, Republic of Kazakhstan

...

Latest news about this satellite

There are no fresh news available about this satellite. Check back as we update our databases every day.


Newsletter sign-up

Weekly statistics, charts and insights to help you stay on top of the space industry.